[[{"header":{"parameterUnit":"m.s-1","parameterCategory":1,"la1":30.2991,"la2":30.254,"lo1":-89.0895,"lo2":-89.0444,"dy":0.0017,"dx":0.0017,"nx":28,"ny":28,"refTime":"2024-06-18T09:00:00:Z","depth":0,"parameterNumber":2,"parameterNumberName":"U-component_of_WINDS"},"data":[0,0,0,0,0,0,0,0,0,0,0,0,0,0,0,0,0,0,0,0,0,0,0,0,0,0,0,0,0,0,0,0,0,0,0,0,0,0,0,0,0,0,0,0,0,0,0,0,0,0,0,0,0,0,0,0,0,0,-6.7731,-6.773,0,-6.7635,-6.7634,-6.7633,-6.7354,-6.7348,-6.7342,-6.7336,-6.7245,-6.7249,-6.7252,0,0,0,0,0,0,0,0,0,0,0,0,0,-6.768,-6.7682,-6.7731,-6.773,-6.7729,-6.7635,-6.7634,-6.7633,-6.7355,-6.7348,-6.7341,-6.7334,-6.7244,-6.7248,-6.7252,0,0,0,0,0,0,0,0,0,0,0,0,0,-6.7655,-6.7683,-6.7731,-6.7579,-6.7564,-6.7636,-6.7634,-6.7632,-6.7357,-6.7348,-6.7339,-6.733,-6.7243,-6.7248,-6.7253,-6.7466,0,0,-6.7268,-6.727,0,0,0,0,0,0,0,0,-6.7657,-6.7657,-6.7602,-6.7589,-6.7573,-6.7497,-6.7582,-6.7577,-6.7359,-6.7436,-6.7336,-6.7326,-6.7337,-6.7334,-6.7336,-6.7462,-6.7458,-6.7268,-6.7271,-6.7273,-6.7275,0,0,0,0,0,0,0,-6.7659,-6.766,-6.7693,-6.7602,-6.7584,-6.7517,-6.7504,-6.758,-6.7439,-6.7429,-6.7408,-6.74,-6.7327,-6.7332,-6.7332,-6.7457,-6.7268,-6.7272,-6.7275,-6.7277,-6.7751,-6.776,0,0,0,0,0,0,-6.7682,-6.7663,-6.7696,-6.769,-6.7593,-6.7526,-6.751,-6.7531,-6.7438,-6.7414,-6.7408,-6.7388,-6.7328,-6.7326,-6.7328,-6.7568,-6.7273,-6.7278,-6.728,-6.7741,-6.7753,-6.7763,0,0,0,0,0,0,-6.7682,-6.7687,-6.77,-6.7671,-6.7668,-6.7536,-6.7562,-6.7534,-6.7538,-6.7422,-6.7396,-6.7438,-6.7321,-6.7321,-6.7433,-6.7561,-6.728,-6.7284,-6.773,-6.7745,-6.7758,-6.8055,0,0,0,0,0,0,-6.7681,-6.7689,-6.7767,-6.7675,-6.767,-6.7806,-6.757,-6.7539,-6.7546,-6.7519,-6.7443,-6.7422,-6.7314,-6.7427,-6.7438,-6.7563,-6.7288,-6.7717,-6.7736,-6.7753,-6.8033,-6.8077,-6.8116,0,0,0,0,0,-6.768,-6.7857,-6.7773,-6.7778,-6.7765,-6.7814,-6.7811,-6.7681,-6.7558,-6.7636,-6.7562,-6.7425,-6.7547,-6.7441,-6.745,-6.758,-6.7709,-6.7731,-6.7752,-6.8014,-6.8069,-6.8115,0,0,0,0,0,0,-6.797,-6.7842,-6.7747,-6.7898,-6.7869,-6.7767,-6.7861,-6.7743,-6.775,-6.7724,-6.7564,-6.7549,-6.7683,-6.7643,-6.7527,-6.778,-6.7605,-6.763,-6.7801,-6.7852,-6.7893,-6.7898,-6.7292,0,0,0,0,0,-6.8051,-6.81,-6.7986,-6.813,-6.812,-6.7995,-6.8011,-6.7912,-6.7876,-6.7863,-6.7796,-6.7769,-6.78,-6.7824,-6.7847,-6.8027,-6.8005,-6.812,-6.8162,-6.8197,-6.8219,-6.8309,-6.8358,-6.7834,-6.7834,-6.7834,0,0,-6.822,-6.8156,-6.8197,-6.8187,-6.8152,-6.8207,-6.7986,-6.8053,-6.8092,-6.7874,-6.7973,-6.7925,-6.7883,-6.803,-6.8091,-6.8,-6.836,-6.8224,-6.8253,-6.8256,-6.8336,-6.8386,-6.843,-6.7849,-6.7846,-6.7844,0,0,-6.8554,-6.8512,-6.8625,-6.8595,-6.8544,-6.8459,-6.8488,-6.8403,-6.8361,-6.8459,-6.8295,-6.8342,-6.84,-6.8376,-6.8372,-6.8698,-6.8572,-6.8711,-6.8926,-6.9016,-6.9057,-6.9093,-6.9207,-6.925,-6.8734,-6.8735,-6.8735,0,-6.8771,-6.8844,-6.87,-6.8777,-6.8777,-6.858,-6.8694,-6.8673,-6.8635,-6.8641,-6.8539,-6.8607,-6.8565,-6.8702,-6.8781,-6.8786,-6.8812,-6.8716,-6.9063,-6.9097,-6.9128,-6.9235,-6.9279,-6.8751,-6.875,-6.8748,-6.8746,0,-6.9111,-6.9165,-6.9264,-6.9227,-6.9239,-6.9336,-6.9208,-6.9238,-6.914,-6.9066,-6.9168,-6.9112,-6.9118,-6.9145,-6.9051,-6.9269,-6.9213,-6.9091,-6.891,-6.9197,-6.9295,-6.9335,-6.8776,-6.877,-6.8765,-6.876,0,0,-6.9623,-6.9505,-6.9543,-6.9523,-6.9454,-6.9494,-6.9582,-6.9586,-6.9614,-6.9595,-6.9664,-6.9719,-6.9603,-6.9599,-6.9501,-6.9581,-6.984,-6.9447,-6.9443,-6.952,-7.0074,-7.0165,-7.0214,-6.9757,-6.9764,-6.977,-7.0076,0,-6.9936,-7.0075,-6.9948,-7.0113,-7.016,-6.9975,-7.0051,-7.0018,-6.9953,-6.9985,-6.9914,-6.9953,-6.98,-6.9795,-6.9866,-6.9794,-6.9948,-6.977,-6.982,-6.9823,-6.9832,-7.0265,-7.0361,-7.0653,-7.0114,-7.012,-7.0125,0,-7.0319,-7.0313,-7.0482,-7.04,-7.0415,-7.0486,-7.0478,-7.0512,-7.0471,-7.0418,-7.0414,-7.0293,-7.0375,-7.0202,-7.0313,-7.0194,-7.0208,-7.0176,-7.0184,-7.0181,-6.9989,-7.0271,-7.0743,-7.0786,-7.0184,-7.018,-7.0175,0,-7.0671,-7.0707,-7.0811,-7.0801,-7.0709,-7.0762,-7.0727,-7.0677,-7.0687,-7.0683,-7.0687,-7.0695,-7.0698,-7.0707,-7.0593,-7.0478,-7.0718,-7.0536,-7.0676,-7.0679,-7.0732,-7.0729,-7.1209,-7.0748,-7.0747,-7.0746,-7.0745,0,-7.1031,-7.1141,-7.0967,-7.1032,-7.115,-7.1005,-7.1127,-7.1072,-7.103,-7.1081,-7.0924,-7.0976,-7.0823,-7.0861,-7.0773,-7.0877,-7.0881,-7.084,-7.0815,-7.0852,-7.0857,-7.0856,-7.0832,-7.0757,-7.0755,-7.0753,-7.0751,0,-7.1443,-7.1331,-7.1432,-7.1336,-7.1315,-7.1406,-7.1324,-7.1381,-7.1305,-7.1373,-7.138,-7.1263,-7.1298,-7.1186,-7.1205,-7.1145,-7.1296,-7.124,-7.1309,-7.129,-7.1436,-7.1423,-7.1929,-7.1987,-7.1493,-7.1498,-7.1502,0,-7.1678,-7.1757,-7.1669,-7.1691,-7.1663,-7.1701,-7.1709,-7.1571,-7.1587,-7.1547,-7.1609,-7.1631,-7.164,-7.1706,-7.1624,-7.1637,-7.1578,-7.1755,-7.1579,-7.1613,-7.1577,-7.1572,-7.1578,-7.179,-7.1796,-7.1801,-7.1805,0,-7.2107,-7.2047,-7.2064,-7.2063,-7.2077,-7.207,-7.2052,-7.208,-7.1931,-7.1958,-7.1991,-7.1999,-7.2016,-7.204,-7.2036,-7.2001,-7.188,-7.1862,-7.1894,-7.1931,-7.1967,-7.1946,-7.1405,-7.185,-7.1845,-7.1842,-7.184,-7.1838,-7.2434,-7.2495,-7.2442,-7.2466,-7.2438,-7.2425,-7.2472,-7.2402,-7.2426,-7.2426,-7.2345,-7.2395,-7.2352,-7.2333,-7.2312,-7.2349,-7.2268,-7.2316,-7.2327,-7.234,-7.2363,-7.1964,-7.2349,-7.2347,-7.2346,-7.2345,-7.2344,0,-7.2851,-7.2807,-7.2831,-7.281,-7.283,-7.2712,-7.2686,-7.2711,-7.2755,-7.2725,-7.2737,-7.2775,-7.2798,-7.2718,-7.2729,-7.2775,-7.272,-7.2783,-7.2776,-7.277,-7.2437,-7.2406,-7.2827,-7.2827,-7.2827,-7.2827,-7.2827,-7.2827,-7.307,-7.3166,-7.3101,-7.3182,-7.3138,-7.3182,-7.3178,-7.3166,-7.314,-7.3188,-7.3205,-7.3152,-7.3102,-7.3108,-7.3125,-7.31,-7.3111,-7.3193,-7.315,-7.2841,-7.2793,-7.2748,-7.2718,-7.3197,-7.3198,-7.3478,-7.3481,-7.3483]},{"header":{"parameterUnit":"m.s-1","parameterCategory":1,"la1":30.2991,"la2":30.254,"lo1":-89.0895,"lo2":-89.0444,"dy":0.0017,"dx":0.0017,"nx":28,"ny":28,"refTime":"2024-06-18T09:00:00:Z","depth":0,"parameterNumber":3,"parameterNumberName":"V-component_of_WINDS"},"data":[0,0,0,0,0,0,0,0,0,0,0,0,0,0,0,0,0,0,0,0,0,0,0,0,0,0,0,0,0,0,0,0,0,0,0,0,0,0,0,0,0,0,0,0,0,0,0,0,0,0,0,0,0,0,0,0,0,0,-0.2228,-0.223,0,-0.2398,-0.24,-0.2402,-0.2549,-0.2551,-0.2553,-0.2554,-0.2725,-0.2728,-0.2731,0,0,0,0,0,0,0,0,0,0,0,0,0,-0.2027,-0.203,-0.2228,-0.223,-0.2232,-0.2398,-0.24,-0.2403,-0.2549,-0.2551,-0.2553,-0.2555,-0.2724,-0.2728,-0.2731,0,0,0,0,0,0,0,0,0,0,0,0,0,-0.2147,-0.2031,-0.2228,-0.2326,-0.2336,-0.2397,-0.24,-0.2403,-0.2549,-0.2551,-0.2554,-0.2556,-0.2723,-0.2727,-0.2732,-0.2709,0,0,-0.2745,-0.2747,0,0,0,0,0,0,0,0,-0.214,-0.2154,-0.2309,-0.2319,-0.2331,-0.2455,-0.2392,-0.2506,-0.2548,-0.2468,-0.2554,-0.2557,-0.2633,-0.2645,-0.2671,-0.2717,-0.2724,-0.2746,-0.2748,-0.275,-0.2752,0,0,0,0,0,0,0,-0.2131,-0.2148,-0.2296,-0.2311,-0.2324,-0.236,-0.2379,-0.2414,-0.2534,-0.2475,-0.2486,-0.2504,-0.2639,-0.2667,-0.2676,-0.2727,-0.2746,-0.275,-0.2752,-0.2754,-0.2761,-0.2758,0,0,0,0,0,0,-0.2109,-0.214,-0.229,-0.2301,-0.224,-0.2361,-0.2383,-0.2413,-0.2534,-0.2555,-0.2502,-0.251,-0.2658,-0.2671,-0.2683,-0.2663,-0.275,-0.2755,-0.2757,-0.2763,-0.276,-0.2757,0,0,0,0,0,0,-0.2104,-0.2121,-0.2283,-0.2223,-0.2247,-0.2362,-0.2394,-0.2415,-0.2442,-0.2555,-0.2576,-0.2508,-0.266,-0.2677,-0.2701,-0.2671,-0.2757,-0.2761,-0.2766,-0.2762,-0.2759,-0.2624,0,0,0,0,0,0,-0.2097,-0.2118,-0.2112,-0.2222,-0.2249,-0.2299,-0.2392,-0.2416,-0.245,-0.2463,-0.2566,-0.2586,-0.2663,-0.2694,-0.2706,-0.2679,-0.2764,-0.2769,-0.2764,-0.276,-0.2631,-0.2616,-0.2602,0,0,0,0,0,-0.209,-0.2066,-0.211,-0.2128,-0.2244,-0.2297,-0.2313,-0.2404,-0.2447,-0.2441,-0.2513,-0.2582,-0.2673,-0.2695,-0.271,-0.2684,-0.2772,-0.2766,-0.276,-0.2638,-0.2619,-0.2603,0,0,0,0,0,0,-0.1949,-0.2083,-0.2133,-0.2145,-0.2209,-0.2322,-0.2317,-0.2381,-0.2433,-0.2443,-0.2553,-0.2575,-0.2586,-0.2638,-0.2661,-0.2667,-0.2731,-0.2728,-0.2633,-0.2616,-0.2602,-0.2589,-0.2768,0,0,0,0,0,-0.1919,-0.1953,-0.2068,-0.2067,-0.2097,-0.2201,-0.2228,-0.2292,-0.2362,-0.2389,-0.2464,-0.2527,-0.2571,-0.2596,-0.2642,-0.264,-0.2663,-0.2629,-0.2614,-0.2602,-0.2598,-0.2598,-0.2584,-0.2739,-0.2739,-0.2739,0,0,-0.1858,-0.1936,-0.195,-0.2041,-0.2098,-0.2128,-0.2223,-0.2251,-0.2275,-0.2394,-0.2421,-0.2477,-0.2556,-0.2566,-0.2575,-0.261,-0.256,-0.2595,-0.2584,-0.2587,-0.2591,-0.2576,-0.2563,-0.2735,-0.2736,-0.2736,0,0,-0.1763,-0.1825,-0.1831,-0.1886,-0.1971,-0.2041,-0.2041,-0.2145,-0.2187,-0.2217,-0.2306,-0.2335,-0.2407,-0.2459,-0.2494,-0.2417,-0.2482,-0.2428,-0.2352,-0.2352,-0.2339,-0.2329,-0.23,-0.2288,-0.2424,-0.2424,-0.2424,0,-0.1676,-0.1727,-0.1826,-0.1849,-0.1885,-0.1995,-0.2001,-0.2049,-0.2143,-0.2165,-0.2204,-0.2295,-0.2356,-0.2379,-0.236,-0.2386,-0.2389,-0.2417,-0.2333,-0.2324,-0.2316,-0.2289,-0.2278,-0.2417,-0.2417,-0.2418,-0.2419,0,-0.1615,-0.1649,-0.1643,-0.1732,-0.1768,-0.1782,-0.1882,-0.1906,-0.1967,-0.2031,-0.2059,-0.2136,-0.2198,-0.2209,-0.2268,-0.2239,-0.2258,-0.2313,-0.238,-0.2292,-0.2269,-0.2259,-0.2406,-0.2409,-0.2411,-0.2413,0,0,-0.1435,-0.1579,-0.1575,-0.1616,-0.1717,-0.1745,-0.1763,-0.1825,-0.1842,-0.1904,-0.192,-0.1978,-0.2029,-0.2069,-0.2136,-0.2135,-0.2066,-0.2191,-0.2194,-0.2163,-0.2037,-0.1993,-0.198,-0.2111,-0.2109,-0.2108,-0.203,0,-0.1355,-0.1395,-0.1484,-0.1496,-0.1527,-0.1631,-0.1647,-0.1709,-0.177,-0.1804,-0.1871,-0.1909,-0.1975,-0.1999,-0.2004,-0.2074,-0.2042,-0.2081,-0.2125,-0.2126,-0.2101,-0.1968,-0.1923,-0.1846,-0.2021,-0.202,-0.2019,0,-0.1267,-0.1322,-0.1337,-0.1435,-0.1451,-0.1464,-0.1527,-0.1559,-0.1631,-0.1675,-0.1719,-0.1792,-0.1816,-0.1877,-0.1909,-0.1933,-0.1957,-0.1994,-0.1993,-0.2,-0.2066,-0.1969,-0.1823,-0.181,-0.2005,-0.2007,-0.2007,0,-0.1132,-0.121,-0.1229,-0.1261,-0.1376,-0.1382,-0.143,-0.1506,-0.1537,-0.1591,-0.1612,-0.1668,-0.1698,-0.1739,-0.1824,-0.1862,-0.1846,-0.1915,-0.1881,-0.1879,-0.1873,-0.1871,-0.1726,-0.189,-0.189,-0.189,-0.189,0,-0.1033,-0.1037,-0.117,-0.1181,-0.1188,-0.1289,-0.1293,-0.1351,-0.1417,-0.144,-0.1533,-0.1552,-0.1665,-0.1697,-0.1764,-0.1779,-0.1792,-0.1827,-0.1845,-0.1818,-0.1813,-0.1834,-0.1841,-0.1887,-0.1888,-0.1888,-0.1889,0,-0.0883,-0.0972,-0.0999,-0.1106,-0.1133,-0.1133,-0.1224,-0.1238,-0.1304,-0.1331,-0.1343,-0.1446,-0.1488,-0.1578,-0.1645,-0.169,-0.1688,-0.172,-0.1663,-0.1674,-0.1634,-0.1636,-0.1496,-0.1482,-0.1655,-0.1653,-0.1651,0,-0.0813,-0.0819,-0.0926,-0.0948,-0.0993,-0.1028,-0.106,-0.1159,-0.1188,-0.127,-0.1273,-0.1323,-0.1368,-0.143,-0.1509,-0.156,-0.1593,-0.1541,-0.1602,-0.1574,-0.1591,-0.1588,-0.1589,-0.1527,-0.1524,-0.1522,-0.1521,0,-0.0678,-0.0722,-0.0765,-0.0822,-0.0858,-0.0908,-0.0963,-0.0975,-0.1088,-0.1115,-0.116,-0.1194,-0.1262,-0.1309,-0.1371,-0.142,-0.1487,-0.1501,-0.1496,-0.1468,-0.1434,-0.145,-0.1624,-0.1504,-0.1505,-0.1507,-0.1508,-0.1508,-0.0565,-0.0575,-0.0651,-0.0695,-0.0747,-0.0796,-0.0813,-0.0881,-0.0921,-0.0984,-0.104,-0.1078,-0.1149,-0.124,-0.1284,-0.1314,-0.1348,-0.1341,-0.1339,-0.1335,-0.1322,-0.143,-0.1326,-0.1327,-0.1327,-0.1328,-0.1328,0,-0.0434,-0.0488,-0.0528,-0.0602,-0.0635,-0.0698,-0.0762,-0.0786,-0.0819,-0.088,-0.0922,-0.0971,-0.1017,-0.11,-0.1152,-0.1161,-0.1193,-0.1171,-0.1171,-0.118,-0.129,-0.1289,-0.1144,-0.1144,-0.1144,-0.1144,-0.1144,-0.1144,-0.0369,-0.0388,-0.044,-0.0484,-0.0539,-0.0578,-0.0608,-0.0653,-0.0702,-0.0753,-0.0792,-0.0846,-0.0915,-0.0974,-0.1018,-0.1041,-0.1055,-0.1022,-0.1054,-0.1155,-0.1173,-0.1189,-0.1188,-0.1025,-0.1025,-0.0942,-0.0942,-0.0941]}]]